Flag for Romania Weather past 2 weeks in Iasi, Romania

Now
59 °F

Clear.


Feels Like: 58 °F
Forecast: 40 / 72 °F
Wind: 7 mph from Northeast

Location: Iasi Airport

Current Time: Sep 18, 2014 at 9:34:05 PM

Latest Report: Sep 18, 2014 at 9:00 PM


Visibility: 10 mi

Pressure: 30.24 "Hg

Humidity: 39%

Dew point: 34 °F

Location of IasiLocation

Historic Weather in Iasi — Graph

°F

Iasi temperature yesterday

Maximum temperature yesterday: 73 °F (at 2:30 PM)
Minimum temperature yesterday: 45 °F (at 5:00 AM)
Average temperature yesterday: 60 °F

Past Weeks' High & Low Weather Summary

 TemperatureHumidityPressure
High86 °F (Sep 4, 4:00 PM)100% (Sep 6, 7:00 AM)30.24 "Hg (Sep 6, 7:00 AM)
Low43 °F (Sep 18, 6:30 AM)25% (Sep 8, 3:30 PM)29.89 "Hg (Sep 10, 5:30 PM)
Average68 °F54%30.06 "Hg
* Reported Sep 3 8:00 PM — Sep 18 8:30 PM, Iasi, Weather by CustomWeather, © 2014

Note: Actual official high and low records may vary slightly from our data, if they occured in-between our weather recording intervals... More about our weather records

Advertising

Iasi weather history for previous 24 hours

 ConditionsComfort  
Time TempWeatherWind HumidityBarometerVisibility
8:30 PM
Sep 18
59 °FClear.7 mph39%30.24 "Hg10 mi
8:00 PM61 °FSunny.7 mph36%30.24 "Hg10 mi
7:30 PM63 °FSunny.7 mph37%30.21 "Hg10 mi
7:00 PM66 °FSunny.5 mph32%30.21 "Hg10 mi
6:30 PM70 °FSunny.7 mph29%30.21 "Hg10 mi
6:00 PM72 °FPassing clouds.7 mph25%30.21 "HgN/A
5:30 PM72 °FPassing clouds.9 mph25%30.21 "HgN/A
5:00 PM72 °FPassing clouds.7 mph27%30.21 "HgN/A
4:30 PM72 °FPassing clouds.7 mph31%30.21 "HgN/A
4:00 PM72 °FPassing clouds.7 mph31%30.21 "HgN/A
3:30 PM72 °FPassing clouds.7 mph33%30.21 "HgN/A
3:00 PM72 °FPassing clouds.9 mph33%30.21 "HgN/A
2:30 PM72 °FPassing clouds.7 mph31%30.21 "HgN/A
2:00 PM72 °FPassing clouds.9 mph33%30.21 "HgN/A
1:00 PM72 °FPassing clouds.9 mph33%30.24 "HgN/A
12:30 PM68 °FPassing clouds.7 mph40%30.24 "HgN/A
12:00 PM68 °FSunny.5 mph40%30.24 "Hg10 mi
11:30 AM66 °FSunny.2 mph46%30.24 "Hg10 mi
11:00 AM64 °FSunny.2 mph49%30.24 "Hg10 mi
10:30 AM61 °FSunny.2 mph55%30.24 "Hg10 mi
10:00 AM59 °FSunny.2 mph63%30.24 "Hg10 mi
9:30 AM54 °FSunny.2 mph72%30.24 "Hg10 mi
9:00 AM52 °FSunny.2 mph77%30.24 "Hg10 mi
8:30 AM50 °FPassing clouds.5 mph82%30.24 "HgN/A
8:00 AM48 °FSunny.2 mph87%30.24 "Hg10 mi
7:30 AM45 °FClear.5 mph93%30.21 "Hg10 mi
7:00 AM43 °FClear.2 mph100%30.21 "Hg10 mi
6:30 AM43 °FClear.2 mph100%30.21 "Hg10 mi
5:30 AM46 °FClear.5 mph87%30.21 "Hg10 mi
5:00 AM46 °FClear.5 mph93%30.18 "Hg10 mi
4:00 AM46 °FClear.2 mph93%30.18 "Hg10 mi
3:00 AM46 °FClear.5 mph93%30.18 "Hg10 mi
2:00 AM48 °FClear.2 mph82%30.18 "Hg10 mi
1:00 AM52 °FClear.2 mph67%30.18 "Hg10 mi
12:00 AM54 °FClear.2 mph63%30.18 "Hg10 mi
11:00 PM
Sep 17
54 °FClear.2 mph63%30.18 "Hg10 mi
10:00 PM54 °FPassing clouds.5 mph67%30.18 "HgN/A
9:00 PM61 °FClear.7 mph45%30.18 "Hg10 mi
Weather by CustomWeather, © 2014

See weather overviewHow to use our weather pages